Weather History for Smyrna, TN

Change the Weather History Date:

Thursday, February 14, 2013

  Actual Average Record
Temperature  
Mean Temperature 44 °F -  
Max Temperature 61 °F 49 °F 68 °F (2005)
Min Temperature 28 °F 34 °F 19 °F (1999)
Degree Days  
Heating Degree Days 20    
Moisture  
Dew Point 32 °F    
Average Humidity 85    
Maximum Humidity 100    
Minimum Humidity 34    
Precipitation  
Precipitation 0.00 in - - ()
Sea Level Pressure  
Sea Level Pressure 30.05 in    
Wind  
Wind Speed 3 mph (SW)    
Max Wind Speed 16 mph    
Max Gust Speed 22 mph    
Visibility 6 miles    
Events Fog    
Averages and records for this station are not official NWS values.
T = Trace of Precipitation, MM = Missing Value Source: NWS Daily Summary

Daily Weather History Graph

Daily Weather History Graph

Search for Another Location

Airport:

Trip Planner

Search our weather history database for the weather conditions in past years. The results will help you decide how hot, cold, wet, or windy it might be!

Date:

Astronomy

Feb. 14, 2013 Rise Set
Actual Time 6:34 AM CST 5:26 PM CST
Civil Twilight 6:07 AM CST 5:53 PM CST
Nautical Twilight 5:37 AM CST 6:23 PM CST
Astronomical Twilight 5:08 AM CST 6:52 PM CST
Moon 8:46 AM CST (2/14) 10:17 PM CST (2/14)
Length of Visible Light 11h 45m
Length of Day
10h 52m
Waxing Crescent, 22% of the Moon is Illuminated
Feb 14
Waxing Crescent
Feb 17
First Quarter
Feb 25
Full
Mar 4
Last Quarter
Mar 11
New

Hourly Weather History & Observations

Time (CST) Temp. Windchill Dew Point Humidity Pressure Visibility Wind Dir Wind Speed Gust Speed Precip Events Conditions
12:23 AM 33.8 °F 30.8 °F 33.8 °F 100% 30.04 in 10.0 mi SSW 3.5 mph - N/A   Mostly Cloudy
12:37 AM 33.8 °F - 33.8 °F 100% 30.04 in 9.0 mi Calm Calm - N/A   Scattered Clouds
12:56 AM 32.9 °F 28.5 °F 32.9 °F 100% 30.08 in 8.0 mi South 4.6 mph - N/A   Clear
1:56 AM 32.9 °F - 32.0 °F 96% 30.08 in 6.0 mi Calm Calm - N/A   Clear
2:47 AM 30.2 °F 25.4 °F 30.2 °F 100% 30.04 in 2.5 mi SSE 4.6 mph - N/A   Clear
2:56 AM 29.1 °F 24.1 °F 29.1 °F 100% 30.08 in 1.5 mi SSE 4.6 mph - N/A   Clear
2:59 AM 28.4 °F 23.3 °F 28.4 °F 100% 30.04 in 1.0 mi SSE 4.6 mph - N/A   Clear
3:07 AM 28.4 °F - 28.4 °F 100% 30.04 in 0.8 mi Calm Calm - N/A   Clear
3:10 AM 28.4 °F - 28.4 °F 100% 30.04 in 1.2 mi Calm Calm - N/A   Clear
3:12 AM 28.4 °F - 28.4 °F 100% 30.04 in 2.0 mi Calm Calm - N/A   Clear
3:20 AM 28.4 °F - 28.4 °F 100% 30.04 in 3.0 mi Calm Calm - N/A   Clear
3:29 AM 30.2 °F - 30.2 °F 100% 30.03 in 2.0 mi Calm Calm - N/A   Clear
3:34 AM 28.4 °F - 28.4 °F 100% 30.03 in 1.2 mi Calm Calm - N/A   Clear
3:40 AM 30.2 °F - 30.2 °F 100% 30.03 in 0.8 mi Calm Calm - N/A   Clear
3:49 AM 30.2 °F - 30.2 °F 100% 30.03 in 0.5 mi Calm Calm - N/A Fog Light Freezing Fog
3:56 AM 31.1 °F - 31.1 °F 100% 30.07 in 1.0 mi Calm Calm - N/A   Clear
4:03 AM 28.4 °F - 28.4 °F 100% 30.03 in 0.5 mi Calm Calm - N/A Fog Light Freezing Fog
4:15 AM 28.4 °F - 28.4 °F 100% 30.03 in 1.0 mi Calm Calm - N/A   Clear
4:18 AM 28.4 °F - 28.4 °F 100% 30.02 in 1.5 mi Calm Calm - N/A   Clear
4:26 AM 28.4 °F - 28.4 °F 100% 30.03 in 2.5 mi Calm Calm - N/A   Clear
4:45 AM 28.4 °F - 28.4 °F 100% 30.03 in 3.0 mi Calm Calm - N/A   Clear
4:56 AM 30.0 °F - 30.0 °F 100% 30.07 in 6.0 mi Calm Calm - N/A   Clear
5:48 AM 30.2 °F - 30.2 °F 100% 30.03 in 2.5 mi Calm Calm - N/A   Clear
5:56 AM 30.0 °F - 30.0 °F 100% 30.07 in 3.0 mi Calm Calm - N/A   Clear
6:56 AM 31.1 °F 25.4 °F 31.1 °F 100% 30.08 in 10.0 mi South 5.8 mph - N/A   Clear
7:56 AM 36.0 °F 31.1 °F 34.9 °F 96% 30.10 in 10.0 mi South 5.8 mph - N/A   Clear
9:56 AM 47.8 °F - 39.9 °F 74% 30.08 in 10.0 mi South 9.2 mph - N/A   Clear
10:56 AM 50.9 °F - 37.9 °F 61% 30.07 in 10.0 mi SW 10.4 mph - N/A   Clear
11:56 AM 54.9 °F - 37.9 °F 53% 30.05 in 10.0 mi WSW 13.8 mph - N/A   Clear
12:56 PM 57.9 °F - 36.0 °F 44% 30.03 in 10.0 mi WSW 16.1 mph 19.6 mph N/A   Clear
1:56 PM 59.0 °F - 36.0 °F 42% 30.02 in 10.0 mi WSW 12.7 mph - N/A   Clear
2:56 PM 61.0 °F - 32.0 °F 34% 30.01 in 10.0 mi West 15.0 mph 21.9 mph N/A   Clear
3:56 PM 61.0 °F - 32.0 °F 34% 30.02 in 10.0 mi WSW 13.8 mph - N/A   Clear
4:56 PM 59.0 °F - 32.0 °F 36% 30.03 in 10.0 mi West 10.4 mph - N/A   Clear
5:56 PM 52.9 °F - 32.0 °F 45% 30.05 in 10.0 mi West 5.8 mph - N/A   Clear
6:56 PM 52.0 °F - 32.9 °F 48% 30.05 in 10.0 mi Calm Calm - N/A   Clear
7:56 PM 41.9 °F - 34.9 °F 76% 30.06 in 10.0 mi Calm Calm - N/A   Clear
8:56 PM 39.9 °F - 32.9 °F 76% 30.07 in 10.0 mi Calm Calm - N/A   Clear
9:56 PM 38.8 °F - 34.0 °F 83% 30.08 in 10.0 mi Calm Calm - N/A   Clear
10:56 PM 36.0 °F - 32.0 °F 86% 30.08 in 10.0 mi Calm Calm - N/A   Clear
11:56 PM 34.0 °F - 32.9 °F 96% 30.08 in 10.0 mi Calm Calm - N/A   Clear